When you browse on this site, cookies collect data to enhance your experience and personalize the content and advertising you see.
Visit our Privacy Policy to learn more. By continuing to use the site, you agree to this use of cookies and data.
EN

Hourly Weather Santa Cruz

Today, 10 August, Monday

Time Temperature Precipitation Wind Pressure Humidity
00:00 +23°C° 0 mm 2 mps 722 mmHg 53%
01:00 +23°C° 0 mm 2 mps 722 mmHg 55%
02:00 +23°C° 0 mm 2 mps 722 mmHg 57%
03:00 +21°C° 0 mm 3 mps 721 mmHg 58%
04:00 +21°C° 0 mm 3 mps 721 mmHg 59%
05:00 +21°C° 0 mm 4 mps 720 mmHg 60%
06:00 +22°C° 0 mm 4 mps 721 mmHg 57%
07:00 +23°C° 0 mm 5 mps 721 mmHg 55%
08:00 +25°C° 0 mm 5 mps 721 mmHg 52%
09:00 +28°C° 0 mm 6 mps 721 mmHg 45%
10:00 +32°C° 0 mm 7 mps 721 mmHg 38%
11:00 +35°C° 0 mm 9 mps 721 mmHg 31%
12:00 +35°C° 0 mm 9 mps 720 mmHg 29%
13:00 +37°C° 0 mm 9 mps 719 mmHg 28%
14:00 +38°C° 0 mm 9 mps 718 mmHg 27%
15:00 +37°C° 0 mm 8 mps 718 mmHg 28%
16:00 +37°C° 0 mm 8 mps 717 mmHg 29%
17:00 +35°C° 0 mm 7 mps 717 mmHg 30%
18:00 +34°C° 0 mm 7 mps 717 mmHg 32%
19:00 +33°C° 0 mm 6 mps 718 mmHg 35%
20:00 +32°C° 0 mm 5 mps 719 mmHg 37%
21:00 +30°C° 0 mm 5 mps 719 mmHg 40%
22:00 +29°C° 0 mm 4 mps 719 mmHg 42%
23:00 +28°C° 0 mm 3 mps 720 mmHg 44%

Tomorrow, 11 August, Tuesday

Time Temperature Precipitation Wind Pressure Humidity
00:00 +27°C° 0 mm 3 mps 719 mmHg 48%
01:00 +26°C° 0 mm 3 mps 719 mmHg 52%
02:00 +25°C° 0 mm 3 mps 719 mmHg 55%
03:00 +25°C° 0 mm 2 mps 719 mmHg 57%
04:00 +24°C° 0 mm 2 mps 719 mmHg 59%
05:00 +23°C° 0 mm 2 mps 720 mmHg 62%
06:00 +24°C° 0 mm 3 mps 721 mmHg 58%
07:00 +25°C° 0 mm 3 mps 722 mmHg 54%
08:00 +26°C° 0 mm 3 mps 723 mmHg 50%
09:00 +27°C° 0 mm 3 mps 723 mmHg 47%
10:00 +27°C° 0 mm 3 mps 723 mmHg 44%
11:00 +27°C° 0 mm 4 mps 724 mmHg 41%
12:00 +28°C° 0 mm 3 mps 723 mmHg 40%
13:00 +28°C° 0 mm 3 mps 723 mmHg 39%
14:00 +29°C° 0 mm 2 mps 723 mmHg 39%
15:00 +28°C° 0 mm 2 mps 722 mmHg 40%
16:00 +28°C° 0 mm 2 mps 722 mmHg 41%
17:00 +28°C° 0 mm 2 mps 721 mmHg 42%
18:00 +26°C° 0 mm 2 mps 721 mmHg 44%
19:00 +25°C° 0 mm 2 mps 722 mmHg 46%
20:00 +24°C° 0 mm 2 mps 722 mmHg 49%
21:00 +22°C° 0 mm 3 mps 722 mmHg 47%
22:00 +21°C° 0 mm 3 mps 722 mmHg 45%
23:00 +20°C° 0 mm 3 mps 722 mmHg 44%

Day after tomorrow, 12 August, Wednesday

Time Temperature Precipitation Wind Pressure Humidity
00:00 +20°C° 0.1 mm 3 mps 722 mmHg 43%
01:00 +19°C° 0.1 mm 3 mps 722 mmHg 43%
02:00 +19°C° 0.1 mm 2 mps 721 mmHg 42%
03:00 +18°C° 0 mm 2 mps 721 mmHg 41%
04:00 +18°C° 0 mm 3 mps 721 mmHg 40%
05:00 +17°C° 0 mm 3 mps 720 mmHg 39%
06:00 +17°C° 0 mm 3 mps 721 mmHg 37%
07:00 +18°C° 0 mm 3 mps 721 mmHg 35%
08:00 +18°C° 0 mm 3 mps 722 mmHg 33%
09:00 +21°C° 0 mm 3 mps 722 mmHg 32%
10:00 +25°C° 0 mm 2 mps 722 mmHg 31%
11:00 +28°C° 0 mm 2 mps 722 mmHg 30%
12:00 +30°C° 0 mm 4 mps 721 mmHg 32%
13:00 +32°C° 0 mm 6 mps 720 mmHg 34%
14:00 +34°C° 0 mm 7 mps 718 mmHg 37%
15:00 +34°C° 0 mm 7 mps 718 mmHg 39%
16:00 +33°C° 0 mm 7 mps 717 mmHg 41%
17:00 +33°C° 0 mm 7 mps 716 mmHg 43%
18:00 +32°C° 0 mm 7 mps 717 mmHg 48%
19:00 +29°C° 0 mm 6 mps 717 mmHg 53%
20:00 +28°C° 0 mm 5 mps 717 mmHg 58%
21:00 +28°C° 0 mm 5 mps 718 mmHg 57%
22:00 +28°C° 0 mm 4 mps 718 mmHg 56%
23:00 +28°C° 0 mm 4 mps 719 mmHg 55%

13 August, Thursday

Time Temperature Precipitation Wind Pressure Humidity
00:00 +27°C° 0 mm 3 mps 719 mmHg 59%
01:00 +26°C° 0 mm 2 mps 718 mmHg 63%
02:00 +24°C° 0 mm 2 mps 718 mmHg 67%
03:00 +23°C° 0 mm 2 mps 718 mmHg 59%
04:00 +21°C° 0 mm 2 mps 718 mmHg 52%
05:00 +20°C° 0 mm 2 mps 718 mmHg 45%
06:00 +21°C° 0 mm 3 mps 719 mmHg 41%
07:00 +21°C° 0 mm 3 mps 719 mmHg 38%
08:00 +21°C° 0 mm 3 mps 720 mmHg 35%
09:00 +26°C° 0 mm 2 mps 720 mmHg 32%
10:00 +30°C° 0 mm 2 mps 720 mmHg 28%
11:00 +33°C° 0 mm 1 mps 720 mmHg 25%
12:00 +35°C° 0 mm 3 mps 720 mmHg 26%
13:00 +37°C° 0 mm 5 mps 719 mmHg 28%
14:00 +39°C° 0 mm 7 mps 718 mmHg 29%
15:00 +38°C° 0 mm 7 mps 717 mmHg 30%
16:00 +36°C° 0 mm 7 mps 717 mmHg 32%
17:00 +36°C° 0 mm 6 mps 716 mmHg 34%
18:00 +34°C° 0 mm 5 mps 716 mmHg 39%
19:00 +32°C° 0 mm 5 mps 717 mmHg 44%
20:00 +30°C° 0 mm 4 mps 717 mmHg 49%
21:00 +29°C° 0 mm 3 mps 717 mmHg 51%
22:00 +28°C° 0 mm 3 mps 717 mmHg 54%
23:00 +27°C° 0 mm 2 mps 717 mmHg 56%

14 August, Friday

Time Temperature Precipitation Wind Pressure Humidity
00:00 +26°C° 0 mm 2 mps 717 mmHg 60%
01:00 +25°C° 0 mm 1 mps 717 mmHg 63%
02:00 +24°C° 0 mm 1 mps 716 mmHg 66%
03:00 +24°C° 0 mm 1 mps 716 mmHg 65%
04:00 +23°C° 0 mm 1 mps 717 mmHg 63%
05:00 +23°C° 0 mm 1 mps 717 mmHg 61%
06:00 +23°C° 0 mm 1 mps 717 mmHg 55%
07:00 +24°C° 0 mm 1 mps 718 mmHg 49%
08:00 +25°C° 0 mm 1 mps 718 mmHg 43%
09:00 +29°C° 0 mm 3 mps 719 mmHg 39%
10:00 +34°C° 0 mm 5 mps 719 mmHg 34%
11:00 +38°C° 0 mm 7 mps 719 mmHg 30%
12:00 +39°C° 0 mm 8 mps 718 mmHg 28%
13:00 +40°C° 0 mm 8 mps 717 mmHg 27%
14:00 +40°C° 0 mm 9 mps 716 mmHg 25%
15:00 +40°C° 0 mm 8 mps 716 mmHg 27%
16:00 +39°C° 0 mm 8 mps 716 mmHg 29%
17:00 +38°C° 0 mm 7 mps 716 mmHg 30%
18:00 +36°C° 0 mm 6 mps 716 mmHg 33%
19:00 +35°C° 0 mm 6 mps 716 mmHg 36%
20:00 +33°C° 0 mm 5 mps 717 mmHg 39%
21:00 +33°C° 0 mm 5 mps 717 mmHg 40%
22:00 +32°C° 0 mm 4 mps 717 mmHg 42%
23:00 +32°C° 0 mm 4 mps 718 mmHg 43%

15 August, Saturday

Time Temperature Precipitation Wind Pressure Humidity
00:00 +29°C° 0.2 mm 3 mps 718 mmHg 49%
01:00 +28°C° 0.2 mm 3 mps 718 mmHg 54%
02:00 +26°C° 0.2 mm 2 mps 717 mmHg 60%
03:00 +25°C° 0.8 mm 3 mps 718 mmHg 64%
04:00 +24°C° 0.8 mm 3 mps 718 mmHg 68%
05:00 +21°C° 0.8 mm 4 mps 718 mmHg 73%
06:00 +22°C° 0.5 mm 4 mps 719 mmHg 71%
07:00 +22°C° 0.5 mm 3 mps 720 mmHg 70%
08:00 +24°C° 0.5 mm 3 mps 720 mmHg 69%
09:00 +27°C° 0.3 mm 2 mps 721 mmHg 61%
10:00 +29°C° 0.3 mm 1 mps 721 mmHg 53%
11:00 +32°C° 0.3 mm 1 mps 721 mmHg 45%
12:00 +34°C° 0.1 mm 2 mps 720 mmHg 42%
13:00 +35°C° 0.1 mm 4 mps 719 mmHg 40%
14:00 +36°C° 0.1 mm 6 mps 718 mmHg 38%
15:00 +35°C° 0 mm 6 mps 718 mmHg 40%
16:00 +34°C° 0 mm 7 mps 717 mmHg 41%
17:00 +34°C° 0 mm 7 mps 716 mmHg 43%
18:00 +32°C° 0 mm 7 mps 716 mmHg 47%
19:00 +30°C° 0 mm 7 mps 716 mmHg 51%
20:00 +29°C° 0 mm 6 mps 716 mmHg 55%
21:00 +29°C° 0 mm 6 mps 717 mmHg 53%
22:00 +30°C° 0 mm 6 mps 717 mmHg 51%
23:00 +30°C° 0 mm 6 mps 717 mmHg 49%
Show more